This is the latest recevied weather packets stored in our database for station/object SP3PDK-1. If no packets are shown the sender has not sent any weather packets the latest 10 day(s).
| Time | Temp. | Humidity | Pressure | Rain* | Wind** | Luminosity | Snow |
|---|---|---|---|---|---|---|---|
| 1777419853 | 7.22° C | 50% | 1026.1 hPa | - | - | - | - |
| 1777419253 | 7.22° C | 50% | 1026 hPa | - | - | - | - |
| 1777418654 | 7.22° C | 50% | 1026.1 hPa | - | - | - | - |
| 1777418058 | 7.22° C | 49% | 1026 hPa | - | - | - | - |
| 1777417458 | 7.78° C | 48% | 1026 hPa | - | - | - | - |
| 1777416858 | 7.78° C | 50% | 1025.9 hPa | - | - | - | - |
| 1777416258 | 7.78° C | 48% | 1025.7 hPa | - | - | - | - |
| 1777415654 | 7.78° C | 47% | 1025.6 hPa | - | - | - | - |
| 1777414459 | 8.33° C | 45% | 1025.5 hPa | - | - | - | - |
| 1777413854 | 7.22° C | 47% | 1025.5 hPa | - | - | - | - |
| 1777413254 | 7.22° C | 47% | 1025.3 hPa | - | - | - | - |
| 1777412654 | 8.33° C | 47% | 1024.9 hPa | - | - | - | - |
| 1777412054 | 8.89° C | 46% | 1024.7 hPa | - | - | - | - |
| 1777411454 | 9.44° C | 45% | 1024.6 hPa | - | - | - | - |
| 1777410858 | 9.44° C | 44% | 1024.6 hPa | - | - | - | - |
| 1777410258 | 9.44° C | 44% | 1024.5 hPa | - | - | - | - |
| 1777409654 | 10° C | 42% | 1024.6 hPa | - | - | - | - |
| 1777409054 | 10° C | 42% | 1024.5 hPa | - | - | - | - |
| 1777408456 | 10° C | 40% | 1024.4 hPa | - | - | - | - |
| 1777407858 | 10.56° C | 39% | 1024.4 hPa | - | - | - | - |
| 1777407254 | 10.56° C | 38% | 1024.4 hPa | - | - | - | - |
| 1777406653 | 10.56° C | 38% | 1024.4 hPa | - | - | - | - |
| 1777406056 | 11.67° C | 36% | 1024.2 hPa | - | - | - | - |
| 1777405454 | 11.67° C | 36% | 1024.3 hPa | - | - | - | - |
| 1777404858 | 12.22° C | 33% | 1024.2 hPa | - | - | - | - |
* Rain since midnight (hover to see other rain measurements)
** Current wind speed in m/s (hover to see current wind gust speed)